www.pogodaiklimat.ru

Погода и климат >> Архив погоды >> Латвия >> Скриверу


ПОГОДА в Скриверу

  • Прогноз погоды в Скриверу
  • Монитор погоды в Скриверу

АРХИВ ПОГОДЫ в Скриверу

Время (UTC), дата Ветер
(напр.,м/с)
 
Видим.   Явления Облачность Т
(С)
Тd
(С)
f
(%)
Тe
(С)
Тes
(С)
Комфортность P
(гПа)
Po
(гПа)
Тmin
(С)
Tmax
(С)
R
(мм)
R24
(мм)
S
(см)
15 12.08 ЮЗ 4-10
{10}
11 км 9/9 1500 м
[]
+19.1 +16.3 84 +21 +21 комфорт 1012.2 1002.7 2
18 12.08 Ю 2-3
{4}
20 км 9/1
[]
+21.1 +16.0 73 +24 +24 комфорт 1011.2 1001.8
21 12.08 Ю 1-3
{3}
20 км 9/6 1500 м
[]
+20.4 +15.5 73 +24 +24 комфорт 1011.2 1001.7
00 13.08 ЮЗ 1-6
{6}
15 км 10/10 1500 м
[]
+17.1 +16.4 96 +18 +18 1020.9 1001.8 0.2
03 13.08 С 1-1
{6}
4100 м 10/10
[]
+16.3 +16.1 99 +17 +17 1010.2 1000.6 0.8
09 13.08 СЗ 2-3
{4}
20 км 9/5 200 м
[]
+19.2 +16.5 84 +21 +25 комфорт 1009.3 999.8
12 13.08 З 3-5
{6}
20 км 9/1 600 м
[]
+21.9 +13.2 58 +25 +29 комфорт 1009.5 1000.1
15 13.08 З 3-5
{5}
20 км 1/1 1500 м
[]
+22.7 +11.4 49 +25 +27 комфорт 1009.8 1000.4
18 13.08 З 1-3
{6}
17 км 8/8
[]
+16.7 +14.6 87 +18 +18 1011.0 1001.4
21 13.08 Ю 2-3
{3}
14 км ясно +14.1 +13.7 97 +13 +13 1011.5 1001.8
00 14.08 Ю 1-2
{3}
20 км н/о +15.2 +13.3 88 +16 +16 1012.1 1002.5
03 14.08 Ю 2-3
{3}
15 км ясно +12.9 +12.5 97 +12 +12 1012.3 1002.6
06 14.08 З 2-5
{5}
20 км н/о +15.8 +13.4 86 +16 +16 1012.7 1003.1
09 14.08 З 3-6
{6}
н/о н/о +19.3 +13.4 69 +21 +21 комфорт 1012.6 1003.1
12 14.08 З 1-3
{10}
20 км 9/9 1000 м
[]
+15.3 +12.2 82 +16 +17 1012.4 1002.8
15 14.08 ЮЗ 1-2
{4}
20 км 6/6
[]
+15.9 +13.3 85 +17 +18 1012.0 1002.4
18 14.08 штиль 0-1
{3}
20 км 9/6 2000 м
[]
+15.0 +14.5 97 +15 +15 1011.9 1002.3
21 14.08 З 2-5
{6}
18 км н/о +13.8 +11.1 84 +13 +13 1012.1 1002.4 0.2
00 15.08 З 2-4
{4}
20 км 9/1 1500 м
[]
+12.5 +11.2 92 +12 +12 1012.6 1002.9
03 15.08 ЮЗ 2-3
{3}
20 км ясно +10.1 +9.7 97 +8 +8 1023.1 1003.5
06 15.08 ЮЗ 2-5
{5}
20 км ясно +13.7 +11.0 84 +13 +17 1013.6 1003.9
09 15.08 З 3-7
{7}
20 км 4/4 600 м
[]
+18.4 +11.2 63 +19 +24 1013.7 1004.1
12 15.08 З 4-7
{7}
20 км 4/4 1000 м
[]
+20.4 +8.3 46 +22 +26 комфорт 1013.5 1004.0
15 15.08 ЮЗ 2-5
{7}
20 км 5/5 2000 м
[]
+20.4 +8.0 45 +22 +24 комфорт 1013.8 1004.3
18 15.08 ЮЗ 1-3
{3}
20 км 5/1 1500 м
[]
+16.3 +10.5 69 +17 +17 1024.5 1005.3
00 16.08 В 1-2
{4}
19 км ясно +9.0 +8.8 99 +8 +8 1026.2 1006.4
03 16.08 СВ 1-2
{3}
12 км ясно +7.7 +7.5 99 +7 +7 1016.4 1006.4
06 16.08 ЮВ 1-3
{3}
19 км 8/8
[]
+15.1 +11.0 76 +16 +17 1016.8 1007.1
09 16.08 З 2-3
{5}
20 км 10/10
[]
+19.7 +9.1 50 +21 +21 комфорт 1026.1 1007.1
12 16.08 СЗ 2-3
{4}
20 км ясно +22.3 +9.4 44 +24 +34 комфорт 1016.0 1006.5
15 16.08 Ю 2-3
{3}
20 км 1/1 1500 м
[]
+22.4 +10.1 46 +24 +27 комфорт 1015.6 1006.1
18 16.08 В 1-1
{2}
20 км ясно +17.1 +12.4 74 +18 +18 1016.0 1006.4
21 16.08 В 1-2
{3}
20 км ясно +14.5 +11.0 80 +15 +15 1016.5 1006.8
00 17.08 В 1-2
{2}
20 км ясно +12.5 +10.1 85 +12 +12 1017.1 1007.3
03 17.08 В 1-2
{2}
19 км ясно +10.5 +9.0 90 +10 +10 1016.8 1006.9
06 17.08 ЮВ 2-3
{3}
20 км ясно +17.0 +11.2 69 +17 +17 1026.6 1007.4
09 17.08 ЮВ 2-5
{5}
20 км ясно +22.7 +11.1 48 +25 +35 комфорт 1016.5 1007.0
12 17.08 ЮВ 3-5
{6}
20 км 4/3 1500 м
[]
+23.6 +10.6 44 +25 +30 комфорт 1015.4 1006.0
15 17.08 ЮВ 2-4
{5}
20 км ясно +23.8 +10.7 44 +25 +28 комфорт 1014.2 1004.8
18 17.08 В 1-2
{3}
19 км ясно +18.7 +12.1 65 +20 +20 1014.5 1004.9
21 17.08 В 1-2
{3}
20 км ясно +16.2 +11.1 72 +17 +17 1014.3 1004.7
00 18.08 В 1-2
{4}
20 км ясно +13.5 +10.2 80 +14 +14 1014.2 1004.5
03 18.08 В 1-2
{4}
20 км ясно +12.3 +10.5 89 +12 +12 1013.4 1003.6
06 18.08 ЮВ 2-4
{4}
20 км 8/8
[]
+18.1 +12.0 68 +19 +19 1012.9 1003.3
09 18.08 ЮВ 3-5
{6}
20 км ясно +23.2 +13.6 55 +27 +35 душно 1012.2 1002.8
12 18.08 ЮВ 4-7
{7}
20 км 4/4 1500 м
[]
+24.3 +11.9 46 +26 +30 жарко 1011.5 1002.1
15 18.08 ЮВ 2-3
{5}
20 км 1/1 1500 м
[]
+24.4 +13.8 52 +27 +29 жарко 1010.7 1001.4
18 18.08 ЮВ 2-3
{4}
20 км н/о +20.1 +13.8 67 +23 +23 комфорт 1020.3 1001.5
21 18.08 ЮВ 1-3
{5}
20 км н/о +18.2 +12.6 70 +20 +20 1010.4 1000.9
00 19.08 ЮВ 2-4
{5}
20 км н/о +18.6 +13.0 70 +20 +20 1009.6 1000.1
03 19.08 ЮВ 2-5
{5}
20 км н/о +19.2 +13.3 69 +21 +21 комфорт 1008.7 999.2
06 19.08 Ю 2-4
{5}
20 км н/о +19.4 +14.6 74 +22 +22 комфорт 1009.6 1000.1
09 19.08 ЮЗ 4-9
{9}
20 км 8/1 1000 м
[]
+24.1 +16.4 62 +28 +28 душно 1019.9 1001.3
12 19.08 З 4-8
{9}
20 км 8/8 1000 м
[]
+25.5 +16.0 56 +29 +30 душно 1011.9 1002.6

 

Местоположение метеостанции Скриверу (Латвия): широта 56.65 долгота 25.13 высота над уровнем моря 83 м.

В архиве по умолчанию представлена погода в Скриверу за последнюю неделю. Архивные данные за месяц целиком и за предыдущие месяцы, начиная с января 2011 года, Вы можете получить, выбрав интересующий диапазон дат из раскрывающегося списка и нажав кнопку "Ввод!".


*Определитесь, кто Вы:
робот инопланетянин человек

Внимание! Время в таблицах - всемирное. Для получения местного времени необходимо прибавить поправку, которая равна 2 ч.

Смотрите также архив погоды в соседних городах и на ближайших метеорологических станциях:

Погода в Зилани (Латвия) (51 км)
Погода в Биржае (Литва) (55 км)
Погода в Бауске (Латвия) (62 км)
Погода в Мадоне (Латвия) (71 км)
Погода в Зозени (Латвия) (72 км)
Погода в Риге (Латвия) (75 км)
Погода в Приекули (Латвия) (76 км)
Погода в Елгаве (Латвия) (86 км)
Погода в Скульте (Латвия) (86 км)
Погода в Паневежисе (Литва) (110 км)

Пояснения к столбцам:

Ветер - указаны скорость ветра в м/с - средняя за 10 мин, порывы в срок и между сроками (в фигурных скобках) и направление, откуда дует ветер: С - северный, СВ - северо-восточный, В - восточный, ЮВ - юго-восточный, Ю - южный, ЮЗ - юго-западный, З - западный, СЗ - северо-западный.
Видимость - горизонтальная дальность видимости в метрах или километрах. При видимости от 1 до 10 км при отсутствии осадков обычно наблюдается дымка, при ухудшении видимости до 1 км и менее - туман. В сухую погоду видимость может ухудшаться дымом, пылью или мглою.
Явления - указаны атмосферные явления, наблюдавшиеся в срок или в последний час перед сроком; фигурными скобками обозначены явления, наблюдавшиеся между сроками (за 1-3 часа до срока); квадратными скобками обозначены град или гололедные отложения с указанием их диаметра в мм.
Облачность - указаны через наклонную черту общая и нижняя облачность в баллах и высота нижней границы облаков в метрах; квадратными скобками обозначены формы облаков: Ci - перистые, Cs - перисто-слоистые, Cc - перисто-кучевые, Ac - высококучевые, As - высокослоистые, Sc - слоисто-кучевые, Ns - слоисто-дождевые, Cu - кучевые, Cb - кучево-дождевые. Подробнее классификацию облаков см. в Атласе облаков (PDF).
T - Температура воздуха - температура, измеренная на высоте 2 м над землей.
Td - Температура точки росы - температура, при понижении до которой содержащийся в воздухе водяной пар достигнет насыщения.
f - Относительная влажность воздуха - влажноcть воздуха, измеренная на высоте 2 м над землей.
Te - Эффективная температура - температура, которую ощущает одетый по сезону человек в тени. Характеристика душности погоды. При расчете учитывается влияние влажности воздуха и скорости ветра на теплоощущения человека.
Tes - Эффективная температура на солнце - температура, которую ощущает человек, с поправкой на солнечный нагрев. Характеристика знойности погоды. Зависит от высоты солнца над горизонтом, облачности и скорости ветра. Ночью, в пасмурную погоду, а также при ветре 12 м/с и более поправка равна нулю.
P - Атмосферное давление - приведенное к уровню моря атмосферное давление.
Po - Атмосферное давление - измеренное на уровне метеостанции атмосферное давление.
Tmin - Минимальная температура - минимум температуры воздуха на высоте 2 м над землей.
Tmax - Максимальная температура - максимум температуры воздуха на высоте 2 м над землей.
R - Количество осадков - Количество выпавших осадков за период времени, мм. При наведении курсора мыши на число - период времени, за который выпало указанное количество осадков.
R24 - Количество осадков - Количество выпавших осадков за 24 часа, мм.
S - Снежный покров - Высота снежного покрова, см. При наведении курсора мыши на число - состояние снежного покрова и степень покрытия местности в баллах.